FW0903 Weather Reports


time (UTC)temp
C
wind
direction
speed
KPH
gust
KPH
rain 1hr
cm
rain 24hr
cm
rain mn
cm
humidity
%
barometer
mb
20260503055019 3 0.0 1.6 0.00 0.00 0.00 72 1016.8
20260503054019 3 0.0 1.6 0.00 0.00 0.00 72 1016.7
20260503053020 3 0.0 0.0 0.00 0.00 0.00 71 1016.8
20260503052020 3 0.0 1.6 0.00 0.00 0.00 70 1016.8
20260503051019 4 0.0 1.6 0.00 0.00 0.00 70 1016.8
20260503050020 3 0.0 1.6 0.00 0.00 0.00 70 1016.9
20260503045020 4 0.0 0.0 0.00 0.00 0.00 70 1017.0
20260503044019 4 0.0 1.6 0.00 0.00 0.00 70 1016.9
20260503043019 4 0.0 0.0 0.00 0.00 0.00 69 1016.8
20260503042020 4 0.0 0.0 0.00 0.00 0.00 68 1016.8
20260503041020 5 0.0 1.6 0.00 0.00 0.00 68 1016.8
20260503040020 5 0.0 0.0 0.00 0.00 0.00 67 1016.9
20260503035019 5 0.0 0.0 0.00 0.00 0.00 66 1016.9
20260503034041 5 0.0 0.0 0.00 0.00 0.00 66 1016.9
20260503033020 5 0.0 0.0 0.00 0.00 0.00 65 1016.8
20260503032020 5 0.0 1.6 0.00 0.00 0.00 65 1016.9
20260503031018 5 0.0 0.0 0.00 0.00 0.00 66 1016.9
20260503030020 5 0.0 0.0 0.00 0.00 0.00 66 1017.1
20260503025020 5 0.0 0.0 0.00 0.00 0.00 64 1017.1
20260503024020 5 0.0 0.0 0.00 0.00 0.00 64 1017.1
20260503023039 5 0.0 0.0 0.00 0.00 0.00 66 1017.1
20260503022020 5 0.0 1.6 0.00 0.00 0.00 67 1017.1
20260503021020 5 0.0 0.0 0.00 0.00 0.00 67 1017.1
20260503020040 6 0.0 0.0 0.00 0.00 0.00 67 1017.0
20260503015040 6 0.0 0.0 0.00 0.00 0.00 69 1017.0
20260503014020 6 0.0 0.0 0.00 0.00 0.00 68 1017.0
20260503013019 6 0.0 0.0 0.00 0.00 0.00 65 1016.9
20260503012040 6 0.0 0.0 0.00 0.00 0.00 61 1016.9
20260503011040 6 0.0 0.0 0.00 0.00 0.00 59 1016.8
20260503010020 6 0.0 0.0 0.00 0.00 0.00 59 1016.8
20260503005020 6 0.0 0.0 0.00 0.00 0.00 60 1016.8
20260503004020 6 0.0 0.0 0.00 0.00 0.00 59 1016.8
20260503003020 7 0.0 0.0 0.00 0.00 0.00 57 1016.7
20260503002020 7 0.0 0.0 0.00 0.00 0.00 56 1016.7
20260503001020 7 0.0 0.0 0.00 0.00 0.00 54 1016.5
20260503000020 7 0.0 1.6 0.00 0.00 0.00 53 1016.5
20260502235020 8 0.0 0.0 0.00 0.00 0.00 53 1016.6
20260502234041 8 0.0 8.0 0.00 0.00 0.00 53 1016.6
20260502233040 8 0.0 0.0 0.00 0.00 0.00 53 1016.6
20260502232019 7 0.0 0.0 0.00 0.00 0.00 54 1016.6
20260502231020 7 0.0 0.0 0.00 0.00 0.00 55 1016.6
20260502230040 7 0.0 0.0 0.00 0.00 0.00 54 1016.6
20260502225020 7 0.0 0.0 0.00 0.00 0.00 55 1016.6
20260502224021 7 0.0 1.6 0.00 0.00 0.00 56 1016.7
20260502223020 7 0.0 1.6 0.00 0.00 0.00 56 1016.7
20260502222020 7 315 1.6 14.5 0.00 0.00 0.00 55 1016.8
20260502221020 7 0.0 4.8 0.00 0.00 0.00 56 1016.8
20260502220020 7 0.0 0.0 0.00 0.00 0.00 55 1016.7
20260502215020 7 0.0 0.0 0.00 0.00 0.00 56 1016.7
20260502214019 7 0.0 1.6 0.00 0.00 0.00 55 1016.6
20260502213021 7 0.0 1.6 0.00 0.00 0.00 56 1016.5
20260502212019 7 0.0 1.6 0.00 0.00 0.00 58 1016.6
20260502211020 7 0.0 1.6 0.00 0.00 0.00 57 1016.5
20260502210020 7 0.0 1.6 0.00 0.00 0.00 57 1016.6
20260502205020 7 315 6.4 16.1 0.00 0.00 0.00 56 1016.6
20260502204019 7 293 1.6 17.7 0.00 0.00 0.00 54 1016.6
20260502203020 7 0.0 4.8 0.00 0.00 0.00 56 1016.8
20260502202020 7 0.0 0.0 0.00 0.00 0.00 56 1016.7
20260502201019 7 0.0 14.5 0.00 0.00 0.00 57 1016.8
20260502200020 7 0.0 16.1 0.00 0.00 0.00 55 1016.9
20260502195019 7 0.0 0.0 0.00 0.00 0.00 55 1016.9
20260502194020 7 293 4.8 20.9 0.00 0.00 0.00 58 1016.9
20260502193040 7 0.0 0.0 0.00 0.00 0.00 56 1016.9
20260502192020 7 0.0 0.0 0.00 0.00 0.00 55 1017.0
20260502191020 7 0.0 0.0 0.00 0.00 0.00 57 1017.0
20260502190019 7 0.0 11.3 0.00 0.00 0.00 56 1017.1
20260502185020 7 315 3.2 16.1 0.00 0.00 0.00 58 1017.2
20260502184020 7 315 3.2 14.5 0.00 0.00 0.00 56 1017.2
20260502183019 7 315 1.6 16.1 0.00 0.00 0.00 56 1017.3
20260502182020 7 338 6.4 17.7 0.00 0.00 0.00 54 1017.3
20260502181019 7 338 1.6 17.7 0.00 0.00 0.00 55 1017.3
20260502164020 6 0.0 0.0 0.00 0.00 0.00 60 1018.0
20260502163020 6 293 1.6 14.5 0.00 0.00 0.00 60 1018.2
20260502162019 6 0.0 0.0 0.00 0.00 0.00 62 1018.2
20260502161039 6 0.0 1.6 0.00 0.00 0.00 61 1018.3
20260502152019 5 0.0 0.0 0.00 0.00 0.00 67 1018.2
20260502151020 5 315 3.2 16.1 0.00 0.00 0.00 66 1018.1
20260502123039 2 0.0 0.0 0.00 0.00 0.00 83 1017.1
20260502122019 1 0.0 0.0 0.00 0.00 0.00 83 1016.9
20260502121019 1 0.0 0.0 0.00 0.00 0.00 84 1016.8
20260502115539 1 0.0 1.6 0.00 0.00 0.00 84 1016.8
20260502114519 1 0.0 0.0 0.00 0.00 0.00 85 1016.8
20260502113520 0 0.0 0.0 0.00 0.00 0.00 86 1016.9
20260502112520 0 0.0 0.0 0.00 0.00 0.00 86 1016.9
20260502111519 0 0.0 0.0 0.00 0.00 0.00 86 1016.8
20260502110520 0 0.0 0.0 0.00 0.00 0.00 86 1016.7
20260502105519 0 0.0 0.0 0.00 0.00 0.00 86 1016.6
20260502104519 0 0.0 0.0 0.00 0.00 0.00 85 1016.6
20260502103520 0 0.0 0.0 0.00 0.00 0.00 85 1016.6
20260502102519 0 0.0 0.0 0.00 0.00 0.00 85 1016.4
20260502101520 0 0.0 0.0 0.00 0.00 0.00 85 1016.5
20260502100519 0 0.0 0.0 0.00 0.00 0.00 84 1016.5
20260502091519 1 0.0 0.0 0.00 0.00 0.00 82 1016.5
20260502090520 1 0.0 1.6 0.00 0.00 0.00 82 1016.5
20260502071519 2 0.0 0.0 0.00 0.00 0.00 80 1016.2
20260502070519 2 0.0 1.6 0.00 0.00 0.00 80 1016.1
20260502065519 2 0.0 6.4 0.00 0.00 0.00 79 1016.3
20260502064520 2 0.0 1.6 0.00 0.00 0.00 78 1016.3
20260502063520 2 0.0 1.6 0.00 0.00 0.00 78 1016.4